Sparta, WI

12:41 PM CDT on May 29, 2017 (GMT -0500)
Sparta-Fort McCoy

Weather History for KCMY - May, 2014

Change the Weather History Date:

Monday, May 5, 2014

  Actual Average Record
Temperature  
Mean Temperature 52 °F -  
Max Temperature 62 °F 68 °F 90 °F (1949)
Min Temperature 42 °F 41 °F 25 °F (1968)
Degree Days  
Heating Degree Days 13    
Growing Degree Days 2 (Base 50)    
Moisture  
Dew Point 31 °F    
Average Humidity 46    
Maximum Humidity 68    
Minimum Humidity 29    
Precipitation  
Precipitation 0.00 in - - ()
Sea Level Pressure  
Sea Level Pressure 30.01 in    
Wind  
Wind Speed 7 mph (ESE)    
Max Wind Speed 16 mph    
Max Gust Speed 23 mph    
Visibility 10 miles    
Events      
Averages and records for this station are not official NWS values.
T = Trace of Precipitation, MM = Missing Value Source: NWS Daily Summary

Daily Weather History Graph

Daily Weather History Graph

Search for Another Location

Airport or City:

Trip Planner

Search our weather history database for the weather conditions in past years. The results will help you decide how hot, cold, wet, or windy it might be!

Date:

Astronomy

May. 05, 2014 Rise Set
Actual Time 5:49 AM CDT 8:10 PM CDT
Civil Twilight 5:17 AM CDT 8:43 PM CDT
Nautical Twilight 4:37 AM CDT 9:23 PM CDT
Astronomical Twilight 3:52 AM CDT 10:08 PM CDT
Moon 11:09 AM CDT (5/5) 12:54 AM CDT (5/5)
Length of Visible Light 15h 26m
Length of Day
14h 21m
Waxing Crescent, 37% of the Moon is Illuminated
May 5
Waxing Crescent
May 6
First Quarter
May 14
Full
May 21
Last Quarter
May 28
New

Hourly Weather History & Observations

Time (CDT) Temp. Windchill Dew Point Humidity Pressure Visibility Wind Dir Wind Speed Gust Speed Precip Events Conditions
12:15 AM 42.4 °F - 32.0 °F 67% 30.01 in 10.0 mi Calm Calm - N/A   Scattered Clouds
12:35 AM 42.3 °F - 32.4 °F 68% 30.01 in 10.0 mi Calm Calm - N/A   Scattered Clouds
1:00 AM 43.0 °F 41.3 °F 32.4 °F 66% 30.01 in 10.0 mi East 3.5 mph - N/A   Mostly Cloudy
1:15 AM 45.5 °F 43.2 °F 31.8 °F 59% 30.01 in 10.0 mi ESE 4.6 mph - N/A   Mostly Cloudy
1:35 AM 47.7 °F - 29.7 °F 50% 30.00 in 10.0 mi ESE 4.6 mph - N/A   Overcast
1:50 AM 48.6 °F - 29.8 °F 48% 30.00 in 10.0 mi ESE 5.8 mph - N/A   Overcast
2:15 AM 48.4 °F - 30.6 °F 50% 29.99 in 10.0 mi East 8.1 mph - N/A   Scattered Clouds
2:35 AM 48.2 °F - 31.3 °F 52% 30.00 in 10.0 mi ESE 6.9 mph - N/A   Scattered Clouds
2:55 AM 48.2 °F - 30.4 °F 50% 30.01 in 10.0 mi SE 5.8 mph - N/A   Scattered Clouds
3:15 AM 48.2 °F - 30.4 °F 50% 30.03 in 10.0 mi ESE 4.6 mph - N/A   Mostly Cloudy
3:35 AM 48.2 °F - 29.8 °F 49% 30.04 in 10.0 mi SE 3.5 mph - N/A   Overcast
3:55 AM 47.3 °F - 30.7 °F 53% 30.03 in 10.0 mi East 5.8 mph - N/A   Overcast
4:10 AM 47.1 °F - 30.0 °F 51% 30.01 in 10.0 mi ESE 8.1 mph - N/A   Overcast
4:35 AM 46.9 °F - 30.7 °F 53% 30.03 in 10.0 mi ENE 6.9 mph - N/A   Overcast
4:55 AM 46.4 °F 41.9 °F 30.0 °F 53% 30.03 in 10.0 mi East 9.2 mph - N/A   Overcast
5:10 AM 46.0 °F 42.5 °F 30.2 °F 54% 30.05 in 10.0 mi East 6.9 mph - N/A   Overcast
5:55 AM 46.4 °F 41.5 °F 30.2 °F 53% 30.05 in 10.0 mi East 10.4 mph - N/A   Overcast
6:20 AM 45.1 °F 39.9 °F 30.9 °F 58% 30.05 in 10.0 mi East 10.4 mph - N/A   Overcast
6:30 AM 45.0 °F 38.9 °F 31.3 °F 59% 30.04 in 10.0 mi East 12.7 mph 17.3 mph N/A   Overcast
7:10 AM 44.6 °F 38.4 °F 32.0 °F 61% 30.06 in 10.0 mi ESE 12.7 mph - N/A   Overcast
7:35 AM 44.6 °F 38.1 °F 32.0 °F 61% 30.04 in 10.0 mi ESE 13.8 mph 18.4 mph N/A   Overcast
7:55 AM 44.6 °F 40.2 °F 32.0 °F 61% 30.04 in 10.0 mi ESE 8.1 mph - N/A   Overcast
8:15 AM 46.4 °F 42.4 °F 32.0 °F 57% 30.06 in 10.0 mi ENE 8.1 mph - N/A   Overcast
8:35 AM 47.3 °F - 32.0 °F 55% 30.06 in 10.0 mi East 12.7 mph 17.3 mph N/A   Overcast
9:00 AM 47.3 °F - 32.0 °F 55% 30.06 in 10.0 mi East 9.2 mph 18.4 mph N/A   Overcast
9:35 AM 48.2 °F - 32.0 °F 54% 30.05 in 10.0 mi East 11.5 mph - N/A   Overcast
9:50 AM 48.2 °F - 31.6 °F 53% 30.05 in 10.0 mi East 16.1 mph - N/A   Overcast
10:35 AM 51.8 °F - 30.2 °F 44% 30.04 in 10.0 mi ESE 12.7 mph 23.0 mph N/A   Overcast
10:55 AM 53.6 °F - 30.2 °F 41% 30.03 in 10.0 mi East 16.1 mph 21.9 mph N/A   Scattered Clouds
11:15 AM 53.6 °F - 30.2 °F 41% 30.05 in 10.0 mi ESE 16.1 mph 19.6 mph N/A   Clear
11:35 AM 53.6 °F - 28.4 °F 38% 30.04 in 10.0 mi SE 12.7 mph 20.7 mph N/A   Clear
11:55 AM 55.4 °F - 28.4 °F 36% 30.03 in 10.0 mi SE 12.7 mph 23.0 mph N/A   Clear
12:15 PM 57.2 °F - 28.4 °F 33% 30.04 in 10.0 mi SE 13.8 mph 18.4 mph N/A   Clear
12:20 PM 57.0 °F - 28.4 °F 34% 30.03 in 10.0 mi SE 11.5 mph 18.4 mph N/A   Clear
12:35 PM 57.4 °F - 27.5 °F 32% 30.03 in 10.0 mi ESE 12.7 mph 20.7 mph N/A   Clear
1:35 PM 59.0 °F - 28.4 °F 31% 30.01 in 10.0 mi ENE 6.9 mph 20.7 mph N/A   Clear
2:15 PM 60.8 °F - 30.2 °F 31% 29.99 in 10.0 mi East 9.2 mph 16.1 mph N/A   Clear
2:35 PM 60.4 °F - 29.5 °F 31% 29.98 in 10.0 mi East 11.5 mph 17.3 mph N/A   Clear
2:50 PM 60.3 °F - 29.3 °F 31% 29.98 in 10.0 mi ESE 8.1 mph - N/A   Clear
3:10 PM 60.6 °F - 30.9 °F 33% 29.97 in 10.0 mi ENE 8.1 mph - N/A   Clear
3:35 PM 61.3 °F - 32.0 °F 33% 29.95 in 10.0 mi ESE 11.5 mph 18.4 mph N/A   Clear
4:00 PM 61.3 °F - 31.8 °F 33% 29.95 in 10.0 mi East 12.7 mph 17.3 mph N/A   Clear
4:35 PM 62.6 °F - 32.0 °F 32% 29.95 in 10.0 mi East 10.4 mph - N/A   Clear
4:55 PM 62.6 °F - 32.0 °F 32% 29.96 in 10.0 mi East 9.2 mph - N/A   Clear
5:15 PM 62.6 °F - 32.0 °F 32% 29.96 in 10.0 mi NE 9.2 mph - N/A   Clear
5:35 PM 62.6 °F - 30.2 °F 30% 29.97 in 10.0 mi East 4.6 mph 16.1 mph N/A   Clear
5:55 PM 60.8 °F - 28.4 °F 29% 29.97 in 10.0 mi East 8.1 mph - N/A   Clear
6:15 PM 60.8 °F - 30.2 °F 31% 29.96 in 10.0 mi SE 8.1 mph - N/A   Clear
6:35 PM 60.8 °F - 30.2 °F 31% 29.96 in 10.0 mi East 8.1 mph - N/A   Clear
6:55 PM 60.8 °F - 30.2 °F 31% 29.97 in 10.0 mi East 10.4 mph - N/A   Clear
7:15 PM 59.0 °F - 30.2 °F 34% 29.97 in 10.0 mi East 8.1 mph - N/A   Clear
7:35 PM 57.2 °F - 32.0 °F 38% 29.97 in 10.0 mi ESE 5.8 mph - N/A   Clear
7:55 PM 57.2 °F - 32.0 °F 38% 29.97 in 10.0 mi ESE 9.2 mph - N/A   Clear
8:15 PM 55.4 °F - 33.8 °F 44% 29.98 in 10.0 mi ESE 4.6 mph - N/A   Clear
8:35 PM 53.6 °F - 33.8 °F 47% 29.98 in 10.0 mi ESE 4.6 mph - N/A   Clear
8:55 PM 51.8 °F - 33.8 °F 50% 29.99 in 10.0 mi ESE 3.5 mph - N/A   Clear
9:15 PM 50.0 °F - 33.8 °F 54% 30.00 in 10.0 mi East 4.6 mph - N/A   Clear
9:35 PM 50.0 °F - 33.8 °F 54% 30.00 in 10.0 mi East 6.9 mph - N/A   Clear
9:55 PM 50.0 °F - 33.8 °F 54% 30.01 in 10.0 mi ESE 5.8 mph - N/A   Clear
10:17 PM 50.0 °F - 33.8 °F 54% 30.02 in 10.0 mi ESE 6.9 mph - N/A   Clear
10:35 PM 48.2 °F - 33.8 °F 58% 30.02 in 10.0 mi East 8.1 mph - N/A   Clear
10:55 PM 48.2 °F - 33.8 °F 58% 30.02 in 10.0 mi East 8.1 mph - N/A   Clear
11:15 PM 46.4 °F 44.3 °F 33.8 °F 62% 30.02 in 10.0 mi East 4.6 mph - N/A   Clear